Location: Unspecified
(0.0000°N, 0.0000°E)
Time: 17:32:49
(UTC+02:00)

Vanguard 1 Rocket - Visible Passes

Search period start: 31 July 2014 00:00
Search period end: 10 August 2014 00:00
Orbit: 651 x 4229 km, 34.3° (Epoch: 29 July)

Date Brightness Start Highest point End Pass type
(mag) Time Alt. Az. Time Alt. Az. Time Alt. Az.
31 Jul 11.2 00:14:02 10° W 00:34:52 31° NW 00:49:52 10° NNE visible
31 Jul 10.7 20:22:31 10° SW 20:45:46 84° SE 21:10:56 10° NE visible
31 Jul 11.1 22:55:40 10° WSW 23:19:55 46° NW 23:39:06 10° NNE visible
01 Aug 11.3 01:43:23 10° WNW 01:54:39 16° NNW 02:03:14 10° N visible
01 Aug 9.8 06:55:58 10° NNW 06:59:35 16° NNE 07:02:32 10° ENE visible
01 Aug 10.9 21:40:02 10° WSW 22:04:40 63° NW 22:27:27 10° NE visible
02 Aug 11.4 00:20:29 10° W 00:39:25 26° NNW 00:53:27 10° NNE visible
02 Aug 10.4 05:47:17 10° N 05:47:41 10° NNE 05:48:06 10° NNE visible
02 Aug 10.8 20:26:23 10° SW 20:49:18 84° NW 21:14:43 10° NE visible
02 Aug 11.3 23:01:00 10° W 23:24:00 38° NW 23:42:38 10° NNE visible
03 Aug 11.3 01:51:07 10° NW 02:00:06 14° NNW 02:07:15 10° N visible
03 Aug 9.1 06:58:43 10° NNW 07:04:11 26° NNE 07:08:10 10° E visible
03 Aug 11.1 21:44:35 10° WSW 22:08:26 53° NW 22:30:58 10° NE visible
04 Aug 11.4 00:27:29 10° WNW 00:44:24 22° NNW 00:57:14 10° NNE visible
04 Aug 10.0 05:47:43 10° NNW 05:52:38 16° NNE 05:56:19 10° ENE visible
04 Aug 10.9 20:30:30 10° WSW 20:52:54 72° NW 21:18:20 10° NE visible
04 Aug 11.5 23:06:51 10° W 23:28:26 32° NNW 23:46:14 10° NNE visible
05 Aug 11.3 01:58:10 10° NW 02:05:50 13° NNW 02:12:03 10° NNE visible
05 Aug 10.6 04:36:05 10° NNW 04:40:09 13° N 04:43:27 10° NE visible
05 Aug 8.2 07:02:01 10° NW 07:08:38 45° NNE 07:13:05 10° ESE visible
05 Aug 11.3 21:49:33 10° W 22:12:28 45° NW 22:34:27 10° NE visible
06 Aug 11.4 00:34:49 10° WNW 00:49:48 19° NNW 01:01:21 10° NNE visible
06 Aug 11.0 03:22:12 10° NNW 03:26:34 12° N 03:30:13 10° NNE visible
06 Aug 9.5 05:50:21 10° NNW 05:57:24 25° NNE 06:02:04 10° E visible
06 Aug 11.1 20:34:52 10° WSW 20:56:41 61° NW 21:21:49 10° NE visible
06 Aug 11.5 23:13:15 10° WNW 23:33:19 27° NNW 23:49:59 10° NNE visible
07 Aug 11.2 02:03:53 10° NNW 02:11:41 13° N 02:17:54 10° NNE visible
07 Aug 10.3 04:38:08 10° NNW 04:45:16 18° NNE 04:50:14 10° ENE visible
07 Aug 7.3 07:05:42 10° NW 07:12:55 78° NE 07:17:33 10° ESE visible
07 Aug 11.5 21:54:58 10° W 22:16:51 38° NNW 22:37:59 10° NNE visible
08 Aug 11.4 00:42:02 10° NW 00:55:33 17° NNW 01:06:03 10° NNE visible
08 Aug 10.8 03:24:33 10° NNW 03:32:02 15° N 03:37:33 10° NE visible
08 Aug 8.8 05:53:28 10° NW 06:02:01 39° NNE 06:07:09 10° E visible
08 Aug 11.3 20:39:35 10° WSW 21:00:42 51° NNW 21:25:15 10° NE visible
08 Aug 11.5 23:20:06 10° WNW 23:38:38 23° NNW 23:54:03 10° NNE visible
09 Aug 11.1 02:08:18 10° NNW 02:17:30 15° N 02:24:27 10° NNE visible
09 Aug 9.8 04:40:49 10° NNW 04:50:12 26° NNE 04:56:00 10° ENE visible
09 Aug 7.3 07:09:45 10° WNW 07:17:01 62° SW 07:21:40 10° SE visible
09 Aug 11.6 22:00:51 10° W 22:21:37 32° NNW 22:41:39 10° NNE visible
